Weather in Kimasozero

Russia / Republic of Karelia     64°22′32″N   31°13′34″E
temp.,
°C
wind,
m/s
gust,
m/s
humid.,
%
clouds,
%
prec.,
mm/h
press.,
hPa
HPBL,
m
27 february, sat
sat2700:00−1nw3795100 0.0 1004327
03:00−3nw4794100 0.1 1007268
06:00−7nnw389458 0.0 1009193
09:00−4nnw4129258 0.0 1013401
12:00−2nnw498950 0.0 1015505
15:00−1nw369141 0.0 1016428
18:00−4wnw36942 0.0 101697
21:00−7w33941 0.0 101570
28 february, sun
sun2800:00−7sw239490 0.0 101366
03:00−5ssw389395 0.0 1011224
06:00−4ssw3896100 0.3 1009297
09:00−5wsw2597100 0.3 1010136
12:000wnw359694 0.0 1010458
15:00+1w489797 0.0 1012513
18:000wnw399497 0.0 1012393
21:00−3wsw369691 0.0 1013118
1 march, mon
mon100:00−3wsw389690 0.0 1012226
03:00+1wsw5119895 0.0 1011463
06:00+1w51492100 0.0 1008653
09:00+2w61493100 0.0 1006879
12:00+2w51298100 0.0 1005675
15:00+1w5119899 0.1 1005568
18:000w4128792 0.0 1004647
21:00−1w5148965 0.0 1002649
2 march, tue
tue200:00−2w6158650 0.0 1001592
03:00−2wnw6158558 0.0 1001786
06:00−1nw9189084 0.2 10031317
09:00−4nw6147975 0.4 10071046
12:00−1nw614750 0.0 10101243
15:00−1nw5128215 0.0 10111131
18:00−2wnw5148330 0.0 1012737
21:00−3nw5158615 0.0 1012567
3 march, wed
wed300:00−4wnw411890 0.0 1014350
03:00−6wnw39920 0.0 1015242
06:00−7wnw399319 0.0 1016226
09:00−7wnw379438 0.0 1016160
12:00−4w489058 0.0 1014323
15:00−1wsw5118262 0.0 1011614
18:00−2sw51289100 0.0 1006609
21:00+1wsw71397100 0.3 999954